TimeMST,TemperatureF,Dew PointF,Humidity,Sea Level PressureIn,VisibilityMPH,Wind Direction,Wind SpeedMPH,Gust SpeedMPH,PrecipitationIn,Events,Conditions,WindDirDegrees,DateUTC
1:53 AM,37.9,34.0,86,30.29,10.0,SE,3.5,-,N/A,,Clear,140,2012-11-06 08:53:00
2:53 AM,39.0,35.1,86,30.29,10.0,Calm,Calm,-,N/A,,Clear,0,2012-11-06 09:53:00
3:53 AM,36.0,33.1,89,30.28,10.0,Calm,Calm,-,N/A,,Clear,0,2012-11-06 10:53:00
4:53 AM,34.0,32.0,92,30.29,10.0,SSW,3.5,-,N/A,,Clear,210,2012-11-06 11:53:00
5:53 AM,34.0,32.0,92,30.31,10.0,Calm,Calm,-,N/A,,Clear,0,2012-11-06 12:53:00
6:53 AM,35.1,33.1,92,30.32,10.0,Calm,Calm,-,N/A,,Clear,0,2012-11-06 13:53:00
7:53 AM,36.0,34.0,93,30.33,10.0,Calm,Calm,-,N/A,,Clear,0,2012-11-06 14:53:00
8:53 AM,43.0,36.0,76,30.32,10.0,Calm,Calm,-,N/A,,Clear,0,2012-11-06 15:53:00
9:53 AM,48.9,37.9,66,30.31,10.0,Calm,Calm,-,N/A,,Clear,0,2012-11-06 16:53:00
10:53 AM,55.0,39.9,57,30.28,10.0,NE,3.5,-,N/A,,Clear,40,2012-11-06 17:53:00
11:53 AM,61.0,39.9,46,30.23,10.0,Variable,3.5,-,N/A,,Clear,0,2012-11-06 18:53:00
12:53 PM,66.0,37.9,36,30.18,10.0,Variable,4.6,-,N/A,,Clear,0,2012-11-06 19:53:00
1:53 PM,69.1,37.9,32,30.15,10.0,NNE,3.5,-,N/A,,Clear,20,2012-11-06 20:53:00
2:53 PM,69.1,35.1,29,30.13,10.0,East,5.8,-,N/A,,Clear,80,2012-11-06 21:53:00
3:53 PM,69.1,37.0,31,30.12,10.0,NE,9.2,-,N/A,,Clear,50,2012-11-06 22:53:00
4:53 PM,64.0,39.0,40,30.11,10.0,ENE,8.1,-,N/A,,Clear,70,2012-11-06 23:53:00
5:53 PM,55.0,37.9,53,30.11,10.0,Calm,Calm,-,N/A,,Clear,0,2012-11-07 00:53:00
6:53 PM,48.9,39.0,69,30.12,9.0,East,3.5,-,N/A,,Clear,100,2012-11-07 01:53:00
7:53 PM,51.1,34.0,52,30.10,10.0,SSE,6.9,-,N/A,,Clear,150,2012-11-07 02:53:00
8:53 PM,53.1,33.1,47,30.07,10.0,South,6.9,-,N/A,,Clear,170,2012-11-07 03:53:00
9:53 PM,55.9,33.1,42,30.03,10.0,South,17.3,24.2,N/A,,Clear,190,2012-11-07 04:53:00
10:53 PM,59.0,32.0,36,30.02,10.0,SW,20.7,31.1,N/A,,Clear,220,2012-11-07 05:53:00
11:53 PM,57.0,32.0,39,30.00,10.0,South,18.4,25.3,N/A,,Clear,190,2012-11-07 06:53:00